sat.trackr.live / text

‹ back to catalog

STARLINK-4447

NORAD 53472 · 2022-099H

PAYLOAD ACTIVE UNKNOWN

§ Identity

Operator
Country
US
Launch date
2022-08-12
Launch site
AFWTR
Launch vehicle
Mass (kg)
RCS (m²)

Purposes: comms

External: N2YO · Heavens-Above · Gunter

§ Orbital elements

Epoch: 2026-05-25T04:56:35.992032Z

Period
95.64 min
Inclination
97.4467°
Eccentricity
0.0000975
Mean motion
15.05657976 rev/d
Perigee alt
548.8 km
Apogee alt
550.2 km
Semi-major
6,927.6 km
B*
-5.9240e-5
RAAN
265.1165°
Arg perigee
147.7893°
Mean anomaly
212.3394°
Rev number
20,748

§ Raw data

STARLINK-44471 53472U 22099H   26145.20597213 -.00000913  00000+0 -59240-4 0  99982 53472  97.4467 265.1165 0000975 147.7893 212.3394 15.05657976207482

JSON: /api/v1/satellites/53472 · /tle

For live sub-satellite position, see the globe view (requires WebGL).

§ Visibility from observer

Set your observer location to see the next 7 days of passes ≥ 10°. The values pass through the URL so the page stays shareable.

No JS? Fill the form by hand. The geolocation button needs JavaScript.